EW2769 Weather Reports


time (UTC)temp
C
wind
direction
speed
KPH
gust
KPH
rain 1hr
cm
rain 24hr
cm
rain mn
cm
humidity
%
barometer
mb
20260506061601 10 359 4.8 14.5 0.10 0.43 0.43 100 1007.6
20260506061516 -17 0.0 0.0 0.00 0.00 0.00 1005.4
20260506050114 -17 0.0 0.0 0.00 0.00 0.00 1004.9
20260506044532 -17 0.0 0.0 0.00 0.00 0.00 1004.5
20260506044523 11 302 8.0 17.7 0.05 0.33 0.33 100 1005.8
20260506043029 -17 0.0 0.0 0.00 0.00 0.00 1004.3
20260506043018 12 326 6.4 16.1 0.05 0.33 0.33 100 1005.8
20260506041514 12 317 6.4 17.7 0.05 0.33 0.33 100 1005.9
20260506041512 -17 0.0 0.0 0.00 0.00 0.00 1004.5
20260506040009 12 303 6.4 27.4 0.03 0.30 0.30 3 1005.7
20260506040005 -17 0.0 0.0 0.00 0.00 0.00 1004.3
20260506034603 -17 0.0 0.0 0.00 0.00 0.00 1004.2
20260506034507 13 336 16.1 33.8 0.00 0.28 0.28 22 1005.6
20260506034503 -17 0.0 0.0 0.00 0.00 0.00 1004.2
20260506033055 -17 0.0 0.0 0.00 0.00 0.00 1004.1
20260506033004 13 309 1.6 12.9 0.00 0.28 0.28 100 1005.5
20260506031600 13 261 0.0 4.8 0.00 0.28 0.28 100 1004.6
20260506031551 -17 0.0 0.0 0.00 0.00 0.00 1003.8
20260506030048 -17 0.0 0.0 0.00 0.00 0.00 1003.6
20260506030043 13 301 0.0 3.2 0.00 0.28 0.28 100 1004.6
20260506024547 13 205 0.0 8.0 0.00 0.28 0.28 100 1004.5
20260506024542 -17 0.0 0.0 0.00 0.00 0.00 1003.1
20260506023040 -17 0.0 0.0 0.00 0.00 0.00 1003.0
20260506023032 13 274 0.0 8.0 0.00 0.28 0.28 100 1004.5
20260506021529 13 256 0.0 6.4 0.00 0.28 0.28 100 1004.3
20260506021518 -17 0.0 0.0 0.00 0.00 0.00 1002.7
20260506020024 13 244 0.0 6.4 0.00 0.28 0.28 100 1004.1
20260506020014 -17 0.0 0.0 0.00 0.00 0.00 1002.6
20260506014518 13 291 0.0 8.0 0.00 0.28 0.28 7 1004.4
20260506014509 -17 0.0 0.0 0.00 0.00 0.00 1002.7
20260506013014 -17 0.0 0.0 0.00 0.00 0.00 1002.6
20260506011522 14 266 0.0 8.0 0.00 0.28 0.28 12 1004.2
20260506011505 -17 0.0 0.0 0.00 0.00 0.00 1002.5
20260506010108 15 276 0.0 9.7 0.00 0.28 0.28 12 1003.9
20260506010057 -17 0.0 0.0 0.00 0.00 0.00 1002.3
20260506004603 14 283 0.0 8.0 0.00 0.28 0.28 100 1004.0
20260506004558 -17 0.0 0.0 0.00 0.00 0.00 1002.2
20260506003050 14 178 1.6 9.7 0.00 0.28 0.28 100 1003.8
20260506001546 14 236 1.6 9.7 0.00 0.28 0.28 100 1003.7
20260506001529 -17 0.0 0.0 0.00 0.00 0.00 1002.2
20260506000109 13 247 0.0 3.2 0.00 0.28 0.28 100 1003.5
20260506000024 -17 0.0 0.0 0.00 0.00 0.00 1002.1
20260505234544 14 223 0.0 4.8 0.00 0.28 0.28 100 1003.7
20260505234520 -17 0.0 0.0 0.00 0.00 0.00 1001.7
20260505233034 14 7 0.0 0.0 0.03 0.28 0.28 100 1003.6
20260505233024 -17 0.0 0.0 0.00 0.00 0.00 1001.7
20260505231528 14 283 0.0 12.9 0.03 0.28 0.28 100 1003.4
20260505231513 -17 0.0 0.0 0.00 0.00 0.00 1001.8
20260505230046 14 256 3.2 9.7 0.05 0.28 0.28 100 1003.0
20260505230008 -17 0.0 0.0 0.00 0.00 0.00 1002.1
20260505224507 13 276 9.7 24.1 0.10 0.28 0.28 100 1003.2
20260505223100 -17 0.0 0.0 0.00 0.00 0.00 1001.7
20260505223004 13 224 0.0 12.9 0.13 0.25 0.25 100 1002.9
20260505221602 13 301 3.2 19.3 0.15 0.25 0.25 100 1002.9
20260505221544 -17 0.0 0.0 0.00 0.00 0.00 1001.7
20260505220057 13 299 6.4 20.9 0.13 0.23 0.23 100 1003.2
20260505220048 -17 0.0 0.0 0.00 0.00 0.00 1002.1
20260505214550 14 303 9.7 24.1 0.08 0.18 0.18 100 1003.0
20260505214518 -17 0.0 0.0 0.00 0.00 0.00 1002.4
20260505213046 14 288 11.3 30.6 0.05 0.13 0.13 100 1002.6
20260505213007 -17 0.0 0.0 0.00 0.00 0.00 1002.3
20260505211542 15 285 9.7 20.9 0.08 0.10 0.10 100 1001.9
20260505211504 -17 0.0 0.0 0.00 0.00 0.00 1001.9
20260505210107 -17 0.0 0.0 0.00 0.00 0.00 1001.3
20260505210038 15 341 9.7 19.3 0.10 0.10 0.10 100 1001.2
20260505204603 -17 0.0 0.0 0.00 0.00 0.00 1001.2
20260505204516 15 315 11.3 27.4 0.10 0.10 0.10 100 1001.2
20260505203100 -17 0.0 0.0 0.00 0.00 0.00 1001.8
20260505203014 15 336 19.3 33.8 0.08 0.08 0.08 100 1001.3
20260505201556 17 324 27.4 54.7 0.03 0.03 0.03 41 1000.5
20260505201549 -17 0.0 0.0 0.00 0.00 0.00 1001.4
20260505200054 22 200 8.0 25.7 0.00 0.00 0.00 42 999.0
20260505200043 -17 0.0 0.0 0.00 0.03 0.00 1000.8
20260505194611 22 186 6.4 20.9 0.00 0.00 0.00 43 998.6
20260505194543 20 281 14.5 27.4 0.00 0.03 0.00 55 1000.6
20260505193052 22 270 9.7 24.1 0.00 0.00 0.00 44 998.7
20260505193023 20 360 12.9 24.1 0.00 0.03 0.00 52 998.9
20260505191603 22 256 8.0 20.9 0.00 0.00 0.00 45 998.9
20260505191527 21 360 4.8 22.5 0.00 0.03 0.00 48 999.0
20260505190049 22 230 9.7 24.1 0.00 0.00 0.00 43 999.1
20260505190021 21 237 4.8 27.4 0.00 0.03 0.00 49 999.1
20260505184548 23 237 8.0 29.0 0.00 0.00 0.00 44 999.0
20260505184520 21 360 8.0 24.1 0.00 0.03 0.00 48 999.4
20260505183047 23 251 9.7 25.7 0.00 0.00 0.00 43 999.4
20260505183023 21 144 3.2 24.1 0.00 0.03 0.00 48 999.5
20260505181536 22 231 9.7 27.4 0.00 0.00 0.00 44 999.7
20260505181521 21 23 3.2 22.5 0.00 0.03 0.00 47 999.6
20260505180040 22 241 11.3 22.5 0.00 0.00 0.00 45 1000.0
20260505180014 21 267 8.0 29.0 0.00 0.08 0.00 49 999.9
20260505174529 22 287 6.4 30.6 0.00 0.00 0.00 46 1000.2
20260505174512 21 201 4.8 29.0 0.00 0.08 0.00 49 1000.4
20260505173055 21 226 16.1 45.1 0.00 0.08 0.00 47 1000.7
20260505173027 22 220 4.8 16.1 0.00 0.13 0.00 46 1000.5
20260505171550 21 244 14.5 30.6 0.00 0.08 0.00 48 1001.0
20260505171521 22 291 3.2 24.1 0.00 0.13 0.00 49 1000.9
20260505170031 20 311 8.0 22.5 0.00 0.18 0.00 53 1001.6
20260505170021 21 232 6.4 22.5 0.00 0.13 0.00 49 1001.3
20260505164527 20 260 4.8 32.2 0.00 0.18 0.00 53 1001.9
20260505164514 21 189 3.2 14.5 0.00 0.13 0.00 50 1001.9
20260505163015 20 186 1.6 19.3 0.00 0.23 0.00 52 1002.0
20260505163010 20 198 4.8 25.7 0.00 0.18 0.00 54 1002.3
20260505161554 20 261 8.0 29.0 0.00 0.23 0.00 52 1002.5
20260505161519 19 203 9.7 30.6 0.00 0.18 0.00 56 1002.4
20260505153058 17 254 0.0 16.1 0.00 0.43 0.00 61 1003.5
20260505153028 18 285 0.0 9.7 0.00 0.46 0.00 56 1003.2
20260505151555 16 252 6.4 20.9 0.00 0.43 0.00 62 1003.7
20260505151523 17 214 4.8 16.1 0.00 0.46 0.00 56 1003.6
20260505150105 16 277 8.0 27.4 0.00 0.71 0.00 62 1004.1
20260505124524 -17 0.0 0.0 0.00 0.71 0.00 1004.6
20260505124518 10 16 0.0 1.6 0.00 0.46 0.46 100 1004.4
20260505123011 8 104 0.0 3.2 0.00 0.46 0.46 100 1004.6
20260505123000 -17 0.0 0.0 0.00 0.71 0.00 1004.4
20260505121559 -17 0.0 0.0 0.00 0.71 0.00 1004.3
20260505121522 7 22 0.0 0.0 0.00 0.46 0.46 100 1004.7
20260505120036 -17 0.0 0.0 0.00 0.71 0.00 1004.5
20260505120004 6 335 0.0 0.0 0.00 0.46 0.46 100 1004.7
20260505114600 5 335 0.0 0.0 0.00 0.46 0.46 100 1005.0
20260505114530 -17 0.0 0.0 0.00 0.71 0.00 1004.5
20260505113059 5 335 0.0 0.0 0.00 0.46 0.46 100 1005.1
20260505113012 -17 0.0 0.0 0.00 0.71 0.00 1004.7
20260505111545 3 335 0.0 3.2 0.00 0.46 0.46 100 1005.3
20260505111505 -17 0.0 0.0 0.00 0.71 0.00 1004.7
20260505101551 -17 0.0 0.0 0.00 0.71 0.00 1004.9
20260505101523 1 39 0.0 0.0 0.00 0.46 0.46 100 1005.4
20260505100045 -17 0.0 0.0 0.00 0.71 0.00 1004.9
20260505100031 1 39 0.0 0.0 0.00 0.46 0.46 100 1005.6
20260505094540 -17 0.0 0.0 0.00 0.71 0.00 1004.9
20260505094514 1 169 0.0 0.0 0.00 0.46 0.46 100 1005.4
20260505093022 0 168 0.0 0.0 0.00 0.46 0.46 100 1005.4
20260505093020 -17 0.0 0.0 0.00 0.71 0.00 1004.8
20260505091611 0 284 0.0 0.0 0.00 0.46 0.46 100 1005.6
20260505091517 -17 0.0 0.0 0.00 0.71 0.00 1004.8
20260505090056 0 283 0.0 0.0 0.00 0.46 0.46 100 1005.5
20260505090028 -17 0.0 0.0 0.00 0.71 0.00 1005.0
20260505084527 1 283 0.0 0.0 0.00 0.46 0.46 100 1005.7
20260505084507 -17 0.0 0.0 0.00 0.71 0.00 1005.0
20260505083033 1 283 0.0 0.0 0.00 0.46 0.46 100 1005.8
20260505083004 -17 0.0 0.0 0.00 0.71 0.00 1005.1
20260505081601 -17 0.0 0.0 0.00 0.71 0.00 1005.2
20260505081518 1 283 0.0 0.0 0.00 0.46 0.46 100 1005.9
20260505080054 -17 0.0 0.0 0.00 0.71 0.00 1005.1
20260505080014 1 283 0.0 0.0 0.00 0.46 0.46 100 1005.9
20260505074550 -17 0.0 0.0 0.00 0.71 0.00 1005.2
20260505074511 1 283 0.0 0.0 0.00 0.46 0.46 100 1005.9
20260505073046 -17 0.0 0.0 0.00 0.71 0.00 1005.2
20260505073005 1 284 0.0 0.0 0.00 0.46 0.46 100 1005.8
20260505071547 -17 0.0 0.0 0.00 0.71 0.00 1005.2
20260505071501 1 283 0.0 0.0 0.00 0.46 0.46 100 1005.8